• In Hungary
  • List of Countries
  • For 7 days
  • Water Temperature
  • Satellite Maps
  • Weather Map
  • News
  • Weather Widgets
  • user-avatar
    Login

    Hourly Weather Volodeevo

    Today, 25 May, Friday

    Time Temperature Precipitation Wind Pressure Humidity
    00:00 +11°C° 0 mm 3 mps 755 mmHg 83%
    01:00 +10°C° 0 mm 3 mps 756 mmHg 82%
    02:00 +9°C° 0 mm 3 mps 756 mmHg 81%
    03:00 +9°C° 0 mm 3 mps 757 mmHg 78%
    04:00 +9°C° 0 mm 3 mps 757 mmHg 75%
    05:00 +9°C° 0 mm 3 mps 757 mmHg 72%
    06:00 +11°C° 0 mm 3 mps 758 mmHg 64%
    07:00 +12°C° 0 mm 3 mps 758 mmHg 55%
    08:00 +14°C° 0 mm 4 mps 758 mmHg 47%
    09:00 +15°C° 0 mm 4 mps 758 mmHg 45%
    10:00 +17°C° 0 mm 4 mps 759 mmHg 43%
    11:00 +18°C° 0 mm 4 mps 759 mmHg 40%
    12:00 +18°C° 0 mm 4 mps 759 mmHg 40%
    13:00 +18°C° 0 mm 4 mps 759 mmHg 40%
    14:00 +19°C° 0 mm 4 mps 759 mmHg 40%
    15:00 +18°C° 0 mm 4 mps 759 mmHg 42%
    16:00 +18°C° 0 mm 3 mps 759 mmHg 44%
    17:00 +18°C° 0 mm 3 mps 759 mmHg 46%
    18:00 +16°C° 0 mm 3 mps 759 mmHg 53%
    19:00 +14°C° 0 mm 2 mps 759 mmHg 59%
    20:00 +12°C° 0 mm 2 mps 760 mmHg 65%
    21:00 +11°C° 0 mm 1 mps 760 mmHg 66%
    22:00 +10°C° 0 mm 1 mps 760 mmHg 67%
    23:00 +10°C° 0 mm 1 mps 761 mmHg 68%

    Tomorrow, 26 May, Saturday

    Time Temperature Precipitation Wind Pressure Humidity
    00:00 +9°C° 0 mm 1 mps 761 mmHg 69%
    01:00 +9°C° 0 mm 1 mps 762 mmHg 71%
    02:00 +7°C° 0 mm 0 mps 762 mmHg 73%
    03:00 +8°C° 0 mm 0 mps 762 mmHg 72%
    04:00 +9°C° 0 mm 0 mps 762 mmHg 71%
    05:00 +10°C° 0 mm 0 mps 763 mmHg 70%
    06:00 +12°C° 0 mm 0 mps 763 mmHg 62%
    07:00 +15°C° 0 mm 1 mps 763 mmHg 55%
    08:00 +18°C° 0 mm 1 mps 763 mmHg 48%
    09:00 +20°C° 0 mm 1 mps 763 mmHg 45%
    10:00 +21°C° 0 mm 1 mps 763 mmHg 42%
    11:00 +22°C° 0 mm 1 mps 763 mmHg 39%
    12:00 +21°C° 0 mm 2 mps 763 mmHg 38%
    13:00 +23°C° 0 mm 2 mps 762 mmHg 38%
    14:00 +23°C° 0 mm 2 mps 762 mmHg 38%
    15:00 +23°C° 0 mm 2 mps 761 mmHg 41%
    16:00 +21°C° 0 mm 2 mps 761 mmHg 43%
    17:00 +21°C° 0 mm 2 mps 761 mmHg 46%
    18:00 +19°C° 0 mm 2 mps 761 mmHg 53%
    19:00 +17°C° 0 mm 2 mps 761 mmHg 60%
    20:00 +15°C° 0 mm 1 mps 760 mmHg 67%
    21:00 +14°C° 0 mm 2 mps 761 mmHg 69%
    22:00 +13°C° 0 mm 2 mps 761 mmHg 70%
    23:00 +12°C° 0 mm 2 mps 761 mmHg 72%

    Day after tomorrow, 27 May, Sunday

    Time Temperature Precipitation Wind Pressure Humidity
    00:00 +12°C° 0 mm 2 mps 761 mmHg 74%
    01:00 +10°C° 0 mm 2 mps 761 mmHg 75%
    02:00 +10°C° 0 mm 3 mps 761 mmHg 77%
    03:00 +10°C° 0 mm 3 mps 761 mmHg 76%
    04:00 +11°C° 0 mm 3 mps 761 mmHg 75%
    05:00 +11°C° 0 mm 3 mps 761 mmHg 74%
    06:00 +13°C° 0 mm 3 mps 760 mmHg 70%
    07:00 +16°C° 0 mm 3 mps 760 mmHg 65%
    08:00 +18°C° 0 mm 3 mps 760 mmHg 60%
    09:00 +19°C° 0 mm 4 mps 759 mmHg 55%
    10:00 +21°C° 0 mm 4 mps 759 mmHg 51%
    11:00 +22°C° 0 mm 4 mps 759 mmHg 47%
    12:00 +22°C° 0 mm 4 mps 758 mmHg 46%
    13:00 +23°C° 0 mm 4 mps 758 mmHg 45%
    14:00 +25°C° 0 mm 4 mps 757 mmHg 44%
    15:00 +23°C° 0 mm 4 mps 757 mmHg 48%
    16:00 +24°C° 0 mm 3 mps 756 mmHg 51%
    17:00 +22°C° 0 mm 3 mps 756 mmHg 55%
    18:00 +21°C° 0 mm 3 mps 756 mmHg 61%
    19:00 +19°C° 0 mm 2 mps 756 mmHg 67%
    20:00 +18°C° 0 mm 2 mps 756 mmHg 73%
    21:00 +17°C° 0 mm 2 mps 757 mmHg 75%
    22:00 +15°C° 0 mm 2 mps 757 mmHg 77%
    23:00 +14°C° 0 mm 2 mps 757 mmHg 79%

    28 May, Monday

    Time Temperature Precipitation Wind Pressure Humidity
    00:00 +13°C° 0 mm 2 mps 758 mmHg 82%
    01:00 +12°C° 0 mm 2 mps 758 mmHg 84%
    02:00 +9°C° 0 mm 2 mps 758 mmHg 87%
    03:00 +10°C° 0 mm 2 mps 759 mmHg 85%
    04:00 +10°C° 0 mm 2 mps 759 mmHg 84%
    05:00 +12°C° 0 mm 2 mps 759 mmHg 83%
    06:00 +13°C° 0 mm 2 mps 760 mmHg 73%
    07:00 +14°C° 0 mm 3 mps 760 mmHg 64%
    08:00 +16°C° 0 mm 3 mps 760 mmHg 54%
    09:00 +17°C° 0 mm 3 mps 761 mmHg 48%
    10:00 +18°C° 0 mm 3 mps 761 mmHg 43%
    11:00 +19°C° 0 mm 3 mps 761 mmHg 37%
    12:00 +20°C° 0 mm 3 mps 761 mmHg 36%
    13:00 +20°C° 0 mm 3 mps 761 mmHg 35%
    14:00 +20°C° 0 mm 3 mps 761 mmHg 35%
    15:00 +20°C° 0 mm 3 mps 761 mmHg 37%
    16:00 +20°C° 0 mm 2 mps 761 mmHg 39%
    17:00 +19°C° 0 mm 2 mps 761 mmHg 41%
    18:00 +17°C° 0 mm 2 mps 761 mmHg 48%
    19:00 +15°C° 0 mm 1 mps 761 mmHg 54%
    20:00 +13°C° 0 mm 1 mps 761 mmHg 61%
    21:00 +12°C° 0 mm 1 mps 761 mmHg 61%
    22:00 +12°C° 0 mm 1 mps 761 mmHg 62%
    23:00 +11°C° 0 mm 1 mps 762 mmHg 62%

    29 May, Tuesday

    Time Temperature Precipitation Wind Pressure Humidity
    00:00 +11°C° 0 mm 1 mps 762 mmHg 63%
    01:00 +10°C° 0 mm 1 mps 762 mmHg 64%
    02:00 +9°C° 0 mm 2 mps 762 mmHg 65%
    03:00 +10°C° 0 mm 2 mps 762 mmHg 66%
    04:00 +10°C° 0 mm 2 mps 762 mmHg 66%
    05:00 +12°C° 0 mm 2 mps 762 mmHg 67%
    06:00 +14°C° 0 mm 2 mps 762 mmHg 61%
    07:00 +16°C° 0 mm 2 mps 762 mmHg 56%
    08:00 +18°C° 0 mm 2 mps 761 mmHg 50%
    09:00 +20°C° 0 mm 3 mps 761 mmHg 46%
    10:00 +21°C° 0 mm 3 mps 761 mmHg 42%
    11:00 +22°C° 0 mm 3 mps 760 mmHg 38%
    12:00 +24°C° 0 mm 3 mps 760 mmHg 38%
    13:00 +25°C° 0 mm 3 mps 759 mmHg 38%
    14:00 +25°C° 0 mm 3 mps 758 mmHg 38%
    15:00 +25°C° 0 mm 3 mps 758 mmHg 40%
    16:00 +25°C° 0 mm 3 mps 757 mmHg 43%
    17:00 +25°C° 0 mm 3 mps 757 mmHg 46%
    18:00 +22°C° 0 mm 3 mps 756 mmHg 53%
    19:00 +19°C° 0 mm 3 mps 756 mmHg 61%
    20:00 +17°C° 0 mm 2 mps 755 mmHg 69%
    21:00 +17°C° 0 mm 2 mps 755 mmHg 71%
    22:00 +16°C° 0 mm 2 mps 755 mmHg 74%
    23:00 +15°C° 0 mm 2 mps 755 mmHg 76%

    30 May, Wednesday

    Time Temperature Precipitation Wind Pressure Humidity
    00:00 +14°C° 0 mm 3 mps 755 mmHg 79%
    01:00 +14°C° 0 mm 3 mps 754 mmHg 82%
    02:00 +13°C° 0 mm 3 mps 754 mmHg 85%
    03:00 +14°C° 0 mm 3 mps 754 mmHg 83%
    04:00 +14°C° 0 mm 3 mps 753 mmHg 82%
    05:00 +16°C° 0 mm 3 mps 753 mmHg 80%
    06:00 +18°C° 0 mm 4 mps 753 mmHg 72%
    07:00 +19°C° 0 mm 4 mps 752 mmHg 63%
    08:00 +21°C° 0 mm 4 mps 752 mmHg 54%
    09:00 +23°C° 0 mm 5 mps 752 mmHg 50%
    10:00 +25°C° 0 mm 5 mps 751 mmHg 46%
    11:00 +27°C° 0 mm 5 mps 751 mmHg 42%
    12:00 +27°C° 0 mm 5 mps 750 mmHg 41%
    13:00 +28°C° 0 mm 5 mps 750 mmHg 40%
    14:00 +28°C° 0 mm 5 mps 749 mmHg 39%
    15:00 +28°C° 0 mm 5 mps 749 mmHg 42%
    16:00 +27°C° 0 mm 4 mps 749 mmHg 45%
    17:00 +27°C° 0 mm 4 mps 748 mmHg 48%
    18:00 +25°C° 0 mm 4 mps 749 mmHg 53%
    19:00 +22°C° 0 mm 4 mps 749 mmHg 57%
    20:00 +21°C° 0 mm 4 mps 749 mmHg 61%
    21:00 +19°C° 0 mm 4 mps 749 mmHg 58%
    22:00 +17°C° 0 mm 3 mps 750 mmHg 54%
    23:00 +14°C° 0 mm 3 mps 750 mmHg 51%
    Show more